Location: Sungai Bunut
(2.6333°N, 113.7333°E)
Time: 11:14:26
(UTC+00:00)

GPS 2-17 Rocket1 - Pass Details

Date: 16 October 2021
Orbit: 570 x 658 km, 20.3° (Epoch: 28 November)

Event Time Altitude Azimuth Distance (km) Brightness Sun altitude
Exits shadow 21:07:30 20° 237° (WSW) 1,430 4.5 -16.0°
Maximum altitude 21:10:37 67° 159° (SSE) 650 3.2 -15.2°
Drops below altitude 10° 21:15:02 10° 76° (ENE) 1,904 6.7 -14.1°
Sets 21:17:20 0° 73° (ENE) 2,790 7.7 -13.5°
